Overview Statistics Trail Chart Weather Telemetry Raw packets
 

This is the latest recevied weather packets stored in our database for station/object DL8BGD. If no packets are shown the sender has not sent any weather packets the latest 10 day(s).

<< 1 2 3 4 >>
Time Temp. Humidity Pressure Rain* Wind** Luminosity Snow
1788674764 15.56° C 77% 1031.2 hPa 0 mm - - -
1788674163 15.56° C 78% 1031.2 hPa 0 mm - - -
1788673577 15.56° C 78% 1031.2 hPa 0 mm - - -
1788672963 15° C 79% 1031.1 hPa 0 mm - - -
1788672362 15° C 80% 1031 hPa 0 mm - - -
1788671762 15° C 81% 1030.9 hPa 0 mm - - -
1788671162 15° C 80% 1030.8 hPa 0 mm - - -
1788670561 15° C 81% 1030.8 hPa 0 mm - - -
1788628065 20° C 56% 1027.2 hPa 0 mm - - -
1788627465 20° C 54% 1027.1 hPa 0 mm - - -
1788626865 20° C 53% 1027 hPa 0 mm - - -
1788626264 19.44° C 57% 1027 hPa 0 mm - - -
1788625664 19.44° C 55% 1026.9 hPa 0 mm - - -
1788625064 20° C 56% 1026.9 hPa 0 mm - - -
1788624463 20° C 55% 1027 hPa 0 mm - - -
1788623263 20° C 60% 1027 hPa 0 mm - - -
1788622662 19.44° C 60% 1027 hPa 0 mm - - -
1788622062 18.89° C 67% 1027.1 hPa 0 mm - - -
1788621461 18.89° C 66% 1027.2 hPa 0 mm - - -
1788620861 18.89° C 61% 1027.1 hPa 0 mm - - -
1788620261 18.89° C 73% 1027.3 hPa 0 mm - - -
1788619660 18.89° C 74% 1027.4 hPa 0 mm - - -
1788619060 18.33° C 74% 1027.7 hPa 0 mm - - -
1788618460 18.33° C 74% 1027.6 hPa 0 mm - - -
1788617859 18.89° C 71% 1027.6 hPa 0 mm - - -

* Rain since midnight (hover to see other rain measurements)
** Current wind speed in m/s (hover to see current wind gust speed)